Wind_Speed
52 52 52 52 53 53 52 52 50 48 47 44 43 42 42 43 43 45 46 45 46 47 46 44 44 45 46 48 50 52 50 48 49 48 48 51 53 54 52 49 47 46 44 43 42 40 39 38 37 37 36 35 34 33 33 32 31 30 30 29 28 27 26 25 24 22 20 19 18 16 16 15 14 14 13 12 12 13 12 11 10 10 10 10 10 9 8 7
53 53 53 53 53 53 52 51 49 47 46 44 43 41 41 41 42 44 44 44 46 47 47 46 45 47 48 49 51 52 50 49 48 48 50 53 55 55 52 49 48 47 45 44 42 40 39 38 37 36 35 34 34 34 33 32 32 31 31 30 28 27 26 25 24 23 21 20 18 17 16 16 15 14 14 13 12 12 13 12 11 11 11 11 10 9 8 7
54 53 53 53 53 53 52 51 49 47 45 44 42 40 40 40 41 42 42 42 45 48 48 47 46 47 49 50 52 53 52 50 48 49 50 53 56 54 51 50 49 47 46 45 44 42 40 39 39 37 36 34 34 34 34 33 33 32 32 31 29 27 26 25 24 23 22 21 20 19 17 16 15 15 14 13 13 13 13 13 12 11 11 11 11 10 9 8
54 53 53 53 53 53 52 51 48 46 44 43 41 40 39 39 40 41 41 40 44 48 48 48 47 47 49 50 52 54 54 52 51 52 51 52 55 54 51 50 49 47 47 46 45 44 43 43 41 40 38 36 35 35 35 35 34 34 33 32 30 28 27 25 24 23 23 22 20 19 18 17 16 15 14 13 13 13 13 14 13 12 12 12 12 12 11 10
55 54 54 53 54 53 52 50 48 46 44 42 41 39 38 38 39 40 40 40 43 47 48 48 48 47 48 50 51 53 55 56 56 55 51 52 56 53 51 50 49 49 48 47 45 44 44 43 43 41 39 38 36 36 36 35 35 34 33 32 31 29 27 26 25 24 23 22 21 20 19 17 16 15 14 14 13 13 13 14 14 13 13 12 12 12 12 12
56 55 54 54 54 53 52 50 48 45 43 42 40 38 37 38 38 39 39 39 43 46 48 48 48 47 47 49 51 52 53 55 57 57 54 54 56 54 52 51 50 49 48 47 45 44 43 42 43 42 40 38 37 36 36 36 35 34 34 32 31 30 29 27 26 24 23 22 22 21 20 18 17 15 14 13 13 12 12 13 13 12 12 12 12 12 12 11
56 55 54 54 54 53 52 50 48 45 43 41 39 38 37 38 38 39 38 38 42 45 47 48 48 47 46 47 50 52 52 52 54 56 57 57 56 55 53 51 51 50 49 48 46 44 43 42 41 41 40 38 38 37 37 36 35 34 33 32 32 31 30 28 27 25 24 23 22 21 20 19 17 16 15 13 12 12 12 11 11 11 10 10 11 11 11 10
57 56 55 54 54 53 52 50 47 44 42 40 39 38 37 38 38 38 38 37 40 44 46 48 49 47 46 46 47 51 52 51 52 52 56 59 56 55 54 52 51 50 49 47 45 43 42 41 40 40 39 38 38 37 37 37 36 35 33 32 32 31 30 29 28 27 25 24 23 22 21 20 19 17 16 15 14 13 12 11 11 10 10 9 9 8 9 8
58 57 55 55 54 53 52 50 47 44 42 40 39 38 37 38 38 38 37 37 39 43 45 47 49 47 46 46 46 49 51 52 52 50 55 59 56 54 54 53 52 50 49 48 46 45 43 42 41 40 39 38 38 38 37 37 36 35 34 33 32 31 30 29 28 27 26 25 24 23 22 21 20 19 18 17 15 14 13 12 11 10 10 9 8 7 7 6
58 57 55 55 54 53 51 49 46 43 42 40 39 38 37 37 37 38 37 37 38 41 44 46 48 47 46 47 46 46 50 54 54 50 55 59 56 54 54 53 52 51 50 49 47 46 44 43 42 41 39 39 39 39 38 38 37 36 34 34 33 32 31 30 29 27 26 25 24 23 22 21 21 20 19 17 16 15 14 13 12 11 10 9 8 8 7 6
58 57 56 55 54 53 50 48 46 43 41 40 39 38 37 37 38 38 37 37 38 39 43 44 46 47 46 46 45 46 50 55 55 53 57 60 57 55 54 53 53 52 50 49 47 46 45 44 43 43 42 42 41 40 40 39 37 37 36 34 33 32 31 30 28 27 26 25 24 22 22 21 21 20 18 17 16 15 14 13 12 11 10 10 9 9 9 8
58 57 56 55 54 53 50 48 45 43 41 40 39 38 37 38 38 39 38 37 38 39 41 42 43 44 45 44 43 46 50 55 57 57 59 60 58 56 54 54 54 53 51 49 48 47 46 45 44 44 44 43 42 41 41 40 38 37 36 35 34 32 31 30 28 27 25 24 23 22 22 21 20 19 18 17 16 14 13 12 11 11 10 10 10 10 10 10
58 57 56 55 54 52 50 47 45 43 41 40 39 38 38 39 40 40 39 37 37 38 38 38 39 41 43 42 42 46 50 55 58 59 60 60 59 57 55 55 54 53 52 51 50 49 48 46 46 46 45 44 43 42 41 39 39 38 37 36 34 33 31 29 28 26 25 24 23 23 22 21 19 19 18 16 15 13 12 12 11 11 11 10 10 10 11 11
58 57 56 55 54 52 49 47 45 43 41 41 40 39 40 41 42 41 39 38 37 37 36 35 36 39 40 40 42 47 51 57 60 59 60 60 60 58 56 55 54 54 53 52 51 50 49 47 47 47 47 46 45 43 41 40 40 38 37 36 35 33 31 29 28 27 26 25 24 23 22 20 19 19 18 16 15 13 12 12 12 11 11 11 11 11 12 11
58 57 56 55 54 52 49 47 45 43 42 41 41 41 42 44 44 43 41 38 38 38 36 34 36 38 39 41 45 49 53 58 60 59 59 60 60 58 57 56 55 54 53 52 52 51 50 49 48 48 47 47 46 45 43 42 41 39 39 37 34 32 31 30 29 28 26 25 24 23 22 21 20 19 18 17 15 14 14 13 13 12 12 12 12 12 13 12
58 57 56 55 53 51 49 47 45 44 43 43 43 44 45 47 46 44 42 40 40 38 35 35 37 38 40 44 47 51 55 59 60 58 58 60 60 58 57 56 55 54 53 52 52 51 50 50 49 49 48 47 46 45 44 43 42 41 39 36 33 32 31 30 29 28 27 26 25 23 22 21 20 19 18 17 16 15 15 14 14 14 14 14 14 14 14 14
58 56 55 54 52 50 48 47 45 44 44 44 44 46 48 49 48 46 44 42 41 38 36 38 39 40 43 47 49 52 57 58 58 57 57 59 59 59 58 57 55 53 52 52 52 51 50 50 50 49 49 48 46 46 45 45 44 41 38 36 33 32 31 30 29 28 28 27 25 24 22 21 20 19 18 17 17 16 15 15 15 16 16 16 16 16 16 15
58 56 54 53 50 49 48 46 45 45 45 45 46 48 51 51 50 47 45 44 43 40 40 43 43 44 46 48 50 54 56 56 56 56 56 58 58 58 58 57 55 53 53 53 52 52 51 51 50 50 49 48 48 47 46 44 40 37 35 33 32 32 32 31 31 30 29 27 26 24 22 22 21 20 19 18 18 17 17 17 18 18 18 18 18 18 17 17
57 55 53 52 50 49 47 46 46 45 45 45 47 50 53 53 51 49 46 45 43 40 42 43 43 44 46 49 52 54 55 54 54 55 56 57 57 57 57 57 55 53 52 53 53 53 52 52 52 52 51 50 48 46 43 39 36 35 34 34 34 34 34 33 33 31 29 28 26 24 23 23 22 20 20 20 19 19 19 20 20 20 20 20 20 20 19 19
56 53 52 51 50 49 48 47 46 45 45 45 46 50 51 51 51 49 47 45 41 39 40 41 42 44 45 49 52 54 56 54 53 54 56 57 56 56 56 56 56 55 53 52 52 52 52 52 52 51 50 48 46 44 42 39 38 38 38 38 38 37 36 35 33 31 29 28 26 24 24 23 22 21 21 20 20 21 21 21 21 21 22 22 22 22 21 22
55 52 50 50 49 48 48 47 46 45 44 45 47 49 48 46 46 44 44 44 41 40 42 42 44 46 46 48 50 52 54 53 52 54 55 56 56 55 55 55 55 55 54 53 52 51 51 51 50 48 46 45 44 43 42 41 40 40 40 40 39 38 37 35 33 31 29 27 26 24 23 22 22 22 22 21 21 22 22 22 22 23 23 23 24 24 23 24
55 52 49 49 49 48 47 46 46 45 44 46 48 49 48 47 45 42 42 43 42 45 47 45 46 46 45 47 48 50 51 51 51 53 54 55 55 55 54 54 53 53 53 54 53 53 52 51 48 47 46 45 45 45 44 43 42 42 42 41 40 39 37 35 33 31 30 28 26 25 23 23 24 24 23 22 22 23 23 23 24 24 24 25 25 25 25 25
55 52 49 48 48 48 47 46 45 44 44 46 49 51 51 50 48 45 44 41 42 49 51 48 48 46 46 47 47 48 49 50 50 50 52 53 53 53 53 53 52 52 52 52 52 53 52 50 48 47 46 46 46 45 45 44 44 43 43 42 41 39 37 36 34 32 31 29 27 26 24 25 26 26 25 24 23 24 24 24 25 25 25 26 26 26 27 27
53 51 49 49 48 48 47 47 45 44 44 48 51 53 53 53 51 48 45 43 45 50 51 49 49 48 47 47 47 48 47 49 49 48 49 50 50 51 52 52 51 51 50 50 49 49 49 47 47 46 45 46 46 46 45 45 45 44 43 43 41 39 38 36 35 33 32 30 29 27 27 27 27 27 26 25 24 23 24 25 25 25 26 27 27 27 28 29
53 51 49 49 49 48 47 47 45 44 46 50 53 54 54 54 53 50 47 46 48 52 51 49 49 49 48 47 47 48 47 48 49 49 48 48 48 49 50 50 50 50 49 48 48 48 47 46 45 45 45 46 46 46 45 45 45 44 44 43 41 40 39 37 36 34 33 32 30 29 29 28 27 27 27 26 25 24 24 25 25 26 27 28 28 28 29 30
53 51 49 49 48 48 47 46 46 46 48 52 54 55 55 55 54 52 49 49 52 53 52 50 49 49 49 47 47 48 48 48 49 49 49 49 48 48 49 49 49 49 49 48 49 48 47 47 47 47 46 47 47 46 46 46 45 44 44 42 41 40 39 38 37 36 35 34 32 30 30 28 27 27 27 26 26 25 24 25 25 26 27 28 29 30 30 31
54 52 50 49 48 47 46 46 46 46 48 52 55 55 57 56 55 54 53 53 54 54 54 52 51 51 50 48 47 47 48 49 49 50 50 49 49 49 49 49 48 48 49 49 50 49 48 47 48 48 48 48 48 47 46 45 45 44 43 42 41 41 40 40 39 37 36 34 33 31 30 30 28 27 28 27 27 26 25 25 25 26 27 28 30 31 31 31
55 53 51 49 49 47 45 45 45 46 48 52 55 57 58 58 57 56 56 56 56 56 56 55 53 53 53 50 48 48 48 47 48 50 50 50 50 50 49 50 49 48 48 48 48 48 47 47 47 46 47 47 47 46 45 44 44 44 43 43 43 42 42 41 40 39 37 36 34 32 31 31 29 27 28 28 27 27 25 25 25 25 26 28 29 31 31 32
57 54 52 50 49 47 45 44 44 46 49 52 55 57 58 58 58 58 59 58 57 56 57 57 56 55 55 53 50 49 48 47 47 48 49 50 50 50 50 49 49 49 48 48 47 46 46 46 46 46 46 46 45 45 45 45 45 45 44 44 43 43 43 42 40 39 38 37 35 33 31 32 30 27 28 29 28 27 26 25 26 26 26 27 28 30 31 32
58 55 52 50 49 47 46 46 46 47 48 51 54 57 58 59 60 61 62 60 57 56 56 57 58 57 56 56 53 51 50 48 48 47 48 48 49 50 50 49 49 49 49 49 49 48 47 46 47 47 47 47 47 47 47 46 46 46 46 45 44 44 43 42 41 40 39 39 36 33 32 32 31 28 27 29 28 27 26 26 27 27 27 27 28 29 30 31
59 57 54 51 49 48 46 46 48 49 49 50 53 57 59 60 61 63 63 60 57 56 56 57 58 58 58 57 55 53 51 50 49 48 49 49 49 50 51 51 51 50 51 51 51 50 49 49 49 49 49 49 49 48 48 48 48 47 47 46 45 45 44 43 42 41 41 39 36 33 32 32 32 29 27 28 28 28 28 28 27 27 27 27 28 29 30 31
60 58 56 52 50 48 47 46 47 48 50 51 52 56 59 61 63 64 62 60 58 56 54 53 55 57 57 58 57 54 51 51 50 49 49 49 49 50 51 52 51 51 52 52 53 52 51 51 51 51 51 50 50 49 50 50 49 48 47 46 45 45 44 43 42 41 40 39 35 33 33 33 32 30 29 29 28 28 29 29 29 28 28 28 28 29 30 31
62 60 57 54 52 50 49 47 46 46 48 50 52 55 58 61 64 63 60 59 57 54 51 50 52 55 57 58 59 56 53 51 50 50 49 49 49 49 50 51 50 50 49 49 50 51 51 51 52 51 51 51 50 49 49 49 48 47 46 45 43 43 42 41 41 40 39 38 35 33 34 34 32 31 31 30 28 28 29 29 29 29 29 29 29 30 30 31
63 62 59 57 54 53 51 49 48 46 46 48 51 53 57 61 63 62 61 59 55 52 51 51 51 54 57 59 59 59 57 54 52 51 50 50 50 50 50 50 50 50 48 47 47 47 48 49 49 49 49 48 48 47 46 45 44 44 43 42 42 41 41 41 40 39 38 37 36 35 35 35 33 32 32 31 30 29 29 29 29 30 30 31 31 31 31 31
64 63 62 59 57 56 54 52 50 48 47 48 50 53 57 61 62 62 62 59 56 54 52 51 51 52 55 58 59 60 60 58 56 54 52 51 50 50 50 50 50 51 50 50 49 47 47 47 46 46 45 45 44 44 43 43 44 44 43 42 42 42 42 41 40 39 38 38 38 37 36 35 34 33 33 32 31 30 30 29 29 29 30 31 32 32 32 32
65 64 64 62 60 58 56 55 52 50 49 49 50 54 58 60 61 61 61 59 58 56 53 53 53 52 53 55 58 60 60 59 58 57 55 53 51 50 49 49 48 49 49 49 49 48 47 46 45 45 45 44 44 44 44 44 44 44 44 43 41 41 40 40 40 40 39 39 40 39 37 36 35 35 34 32 31 31 30 29 28 28 29 30 31 32 33 34
66 66 66 64 63 61 59 57 55 53 52 51 52 56 59 60 60 59 60 59 59 56 54 55 55 54 53 52 54 57 60 60 60 60 58 56 55 53 50 49 48 48 47 47 47 46 45 44 44 44 43 43 43 42 43 43 43 42 42 40 39 39 40 40 40 41 41 42 42 40 38 36 36 35 34 33 32 31 31 30 29 28 28 29 31 33 34 34
68 67 67 67 66 64 62 60 58 56 54 54 55 57 59 60 59 59 59 58 57 55 54 55 55 54 53 51 50 52 57 59 60 62 61 59 57 55 53 51 49 49 48 47 46 46 45 44 44 44 43 42 42 42 42 42 42 41 41 39 39 39 40 40 40 41 41 41 41 40 39 38 37 35 34 34 33 32 32 31 30 29 28 29 30 32 33 34
69 69 69 69 68 67 65 63 61 59 58 57 58 58 59 58 57 58 58 57 55 53 53 54 54 54 53 52 49 49 52 57 60 61 63 62 60 58 55 53 51 50 49 48 48 47 46 46 46 45 44 43 43 43 44 43 42 42 41 41 41 41 40 40 40 40 40 40 41 41 41 40 37 35 36 36 35 35 34 33 32 31 30 30 30 31 33 34
70 71 70 69 69 68 67 65 63 62 61 59 59 59 59 58 57 57 56 55 53 52 52 52 53 53 53 52 51 49 48 52 57 59 61 63 62 60 56 54 52 50 49 49 49 48 47 47 47 46 45 45 45 44 43 42 42 41 41 40 40 40 40 40 40 40 41 41 42 43 44 41 37 35 35 36 36 36 35 34 34 34 33 33 32 32 33 34
69 70 70 69 69 68 68 67 66 64 63 61 60 60 59 58 57 56 55 53 53 52 50 50 51 52 53 52 52 50 48 48 52 57 60 62 61 60 57 54 53 51 49 49 48 48 48 47 47 48 47 45 45 44 42 41 41 40 40 40 39 38 38 39 40 41 42 43 44 44 45 42 38 36 36 36 36 36 35 35 35 35 35 35 34 34 34 34
67 69 70 69 68 68 68 69 69 67 65 64 63 62 60 59 57 56 54 53 52 51 49 49 50 51 52 52 51 51 49 47 48 52 57 61 61 59 56 53 51 49 48 47 46 45 45 45 45 46 46 45 44 43 43 42 41 41 41 40 40 40 41 41 42 43 43 44 44 44 45 43 39 38 38 37 37 36 36 36 35 35 35 35 35 35 35 35
67 67 67 67 67 68 68 70 71 70 68 66 64 64 62 60 58 57 56 54 53 52 50 49 49 50 51 52 52 51 50 49 47 46 51 59 62 60 57 54 51 49 47 46 46 45 44 44 44 44 44 45 45 44 43 43 42 43 42 42 42 43 43 43 43 42 42 43 42 42 45 44 40 39 39 39 39 38 37 37 36 36 36 36 36 36 37 37
68 66 64 64 65 67 69 68 68 69 70 67 66 66 64 62 60 58 56 55 53 53 51 49 49 49 49 50 50 50 50 50 50 46 47 55 62 62 60 57 54 52 50 48 47 46 45 46 46 46 46 46 46 47 47 46 46 46 46 45 45 44 43 43 42 41 42 42 40 41 43 42 39 40 41 41 41 41 40 40 39 38 38 38 38 39 39 40
65 64 62 61 62 64 66 65 64 66 68 68 67 67 66 64 62 60 58 56 54 53 52 51 50 49 48 48 48 49 50 50 51 50 47 51 60 64 62 60 59 56 53 51 49 47 47 48 48 48 49 49 50 50 50 49 47 48 47 45 44 43 42 41 41 41 41 41 41 42 43 41 39 41 43 42 42 42 41 41 41 40 41 41 42 42 43 43
59 61 60 60 60 61 61 61 62 63 65 66 66 66 66 65 64 63 61 59 56 54 53 52 51 50 50 49 48 49 50 50 51 52 49 49 55 62 63 63 61 60 57 55 53 51 51 52 51 50 51 51 50 49 48 46 45 45 44 43 42 41 41 41 42 43 42 41 43 43 41 40 40 42 44 44 43 42 42 43 43 44 45 45 46 46 46 46
53 57 58 59 58 57 57 57 57 59 61 62 63 64 65 64 64 64 63 61 60 57 55 54 53 52 51 50 50 50 50 50 51 51 52 51 51 56 61 63 63 62 61 58 57 55 54 55 55 54 53 53 52 50 49 49 48 47 46 46 45 45 45 45 46 45 43 45 48 46 42 43 44 45 45 46 45 45 46 46 47 48 48 48 48 48 48 48
53 55 55 56 56 55 54 53 53 54 56 57 59 60 61 62 63 63 63 62 61 60 59 57 55 53 52 51 51 51 51 52 52 52 53 53 52 53 56 60 62 63 62 61 60 59 58 58 57 56 55 54 54 54 53 53 52 52 51 50 49 49 49 49 48 47 46 48 49 47 45 46 47 46 46 48 48 48 49 49 50 51 51 50 50 50 50 51
54 56 56 56 56 54 52 53 53 53 54 55 56 57 57 57 58 60 61 62 62 61 61 60 57 55 54 52 52 52 53 53 53 53 53 54 54 54 54 56 59 61 62 62 62 62 61 60 59 58 58 57 57 56 56 56 56 55 55 54 53 52 51 51 50 48 49 51 50 49 49 49 47 47 47 49 50 50 51 52 53 53 53 53 52 53 53 53
56 56 57 56 56 54 53 54 54 53 53 54 56 56 56 55 55 56 58 59 60 60 60 59 58 57 56 55 54 53 53 53 53 53 53 54 55 55 55 56 56 57 59 61 62 63 63 62 61 60 60 61 61 60 59 59 59 59 58 57 56 56 55 54 53 52 53 53 51 51 52 50 48 48 49 50 52 52 53 54 55 56 56 55 55 55 55 56
59 58 57 56 54 53 53 54 54 53 52 52 54 55 55 54 53 53 55 56 57 57 57 57 57 57 56 56 55 54 53 53 53 54 55 56 55 55 55 55 55 56 57 58 59 60 61 62 63 63 63 64 62 62 62 62 62 63 63 61 59 58 57 56 55 54 54 54 52 54 54 51 49 49 50 51 53 54 55 56 56 57 58 57 57 58 58 59
62 60 58 57 56 54 53 52 53 54 53 51 51 53 53 54 53 53 54 55 55 55 56 56 56 55 55 55 55 55 54 54 54 55 55 56 57 57 57 56 56 56 56 56 57 58 58 59 60 62 65 65 64 64 64 64 67 68 65 61 59 59 58 58 58 57 56 55 56 57 55 51 51 51 51 52 53 54 55 55 56 57 58 59 60 60 60 61
Wind_Direction
197 198 201 203 204 204 204 206 208 209 211 212 211 210 210 211 210 211 212 210 205 205 206 199 196 198 197 195 196 198 196 197 202 206 204 195 191 193 191 189 189 190 189 189 189 186 182 180 178 178 177 174 173 172 170 169 168 168 168 168 168 166 163 161 159 155 152 149 149 148 145 146 145 144 146 147 143 137 137 140 142 139 133 128 124 120 116 110
197 198 200 202 203 203 204 206 207 209 211 211 211 210 209 211 211 212 212 210 206 206 208 205 199 197 198 198 199 200 199 199 202 205 202 196 192 193 191 190 191 191 190 190 190 186 183 181 179 179 178 175 174 172 170 170 170 170 170 169 169 167 164 162 159 155 153 152 152 151 149 148 147 145 143 143 141 135 132 136 141 140 135 131 130 127 124 119
196 197 199 201 201 202 203 205 207 208 210 211 211 210 209 211 212 213 212 209 207 207 208 208 203 199 198 199 201 203 201 200 202 204 202 196 193 193 192 192 192 191 190 190 189 186 183 181 180 180 180 178 176 174 172 172 172 173 172 170 170 167 165 163 160 158 156 156 156 155 153 152 150 146 142 140 137 131 128 130 134 134 130 128 129 129 128 126
195 197 199 200 200 201 203 204 206 207 209 211 211 210 209 211 212 213 212 207 206 208 208 209 208 202 199 200 201 204 204 202 202 204 204 197 193 193 193 192 192 192 192 191 189 187 183 181 180 180 180 179 177 175 174 174 175 175 174 172 171 168 166 165 163 162 161 159 159 159 158 156 153 149 145 141 136 132 129 128 131 132 129 126 125 126 127 126
194 196 198 199 199 201 202 204 206 206 208 210 210 210 209 211 213 214 211 206 205 208 209 209 210 207 202 201 202 204 204 203 203 204 204 197 192 193 194 193 193 192 192 192 190 188 184 182 181 180 180 180 178 177 176 176 177 178 177 175 172 170 169 168 167 167 165 164 163 163 162 160 158 154 150 147 143 138 135 133 133 134 133 131 128 126 126 125
194 196 197 198 198 200 202 204 205 206 207 208 209 209 209 211 213 214 212 206 204 207 209 210 211 209 205 203 203 203 204 204 204 205 203 195 192 194 194 193 192 192 192 191 191 188 186 184 183 181 180 181 179 179 179 179 180 181 180 177 174 173 171 170 171 171 171 170 168 167 166 165 163 161 158 154 151 146 143 139 137 137 136 136 133 131 130 128
193 195 196 197 198 199 201 203 205 205 206 207 208 208 208 210 212 213 213 207 203 206 209 210 211 210 207 205 204 204 203 204 205 206 201 194 193 194 194 193 193 192 192 191 191 189 187 186 184 182 181 182 181 181 181 181 183 184 182 180 177 176 175 174 174 175 177 175 173 172 171 169 169 169 167 165 163 161 157 152 149 147 146 145 141 139 138 135
192 194 195 196 197 199 201 203 205 205 205 205 206 207 207 209 211 212 213 208 204 205 208 210 211 210 209 208 205 204 204 204 206 207 201 193 193 195 193 193 193 192 192 191 190 189 188 186 184 183 183 183 182 183 183 184 185 186 184 182 180 180 178 177 177 179 180 179 178 178 176 175 175 175 175 176 177 175 173 170 167 163 161 160 156 153 151 147
192 193 194 195 197 199 200 203 205 204 204 204 205 206 207 208 210 211 212 209 205 205 207 209 211 210 210 210 207 203 202 204 206 205 200 193 192 195 193 192 192 191 191 191 189 188 187 186 184 184 184 184 184 185 185 186 187 187 186 185 184 183 181 179 179 181 181 181 181 181 180 179 180 181 182 184 185 185 186 184 183 180 178 178 177 175 172 168
192 192 193 194 196 199 201 203 204 204 202 202 204 205 207 208 209 210 210 209 207 206 207 208 209 209 210 210 207 203 200 203 204 200 197 193 191 194 193 191 191 191 191 190 189 188 187 186 184 184 184 185 186 187 187 188 188 187 187 187 187 186 183 182 181 181 181 181 182 182 180 180 182 184 185 187 189 193 195 197 196 195 194 194 196 196 196 195
191 192 193 194 196 198 200 203 203 203 201 201 202 204 206 207 207 207 207 208 208 208 207 207 208 208 209 208 205 203 201 201 200 196 194 192 191 192 192 190 190 190 190 190 189 189 188 186 184 184 185 186 187 188 189 189 189 188 188 188 188 188 185 183 182 182 182 181 182 181 180 182 184 185 186 188 192 196 199 204 206 208 209 211 214 215 216 217
191 191 192 194 196 198 200 202 202 201 201 200 201 203 205 206 205 204 205 208 209 209 206 206 207 207 208 206 203 202 201 200 196 191 192 191 190 191 191 190 190 190 189 189 189 189 189 187 185 186 187 187 188 189 190 190 190 190 189 188 189 189 186 184 183 183 183 182 182 181 181 184 185 185 187 189 192 195 199 204 209 212 216 220 225 228 230 230
191 191 192 194 195 198 200 201 201 200 199 199 199 201 203 204 202 202 204 207 208 209 206 205 207 208 208 206 204 202 200 199 192 186 189 190 189 190 191 190 190 189 189 189 189 189 189 188 187 187 188 188 189 191 191 191 192 191 190 190 190 189 187 185 186 186 185 184 184 183 184 186 187 188 188 191 193 195 199 205 210 213 217 222 227 232 236 237
191 191 192 193 195 198 199 200 200 198 198 198 198 199 201 201 200 200 202 204 207 208 206 205 206 207 207 204 203 201 198 196 188 183 187 188 188 190 190 191 190 190 189 189 190 190 190 189 189 189 189 189 189 190 191 193 194 193 192 192 191 190 188 187 188 189 188 188 188 188 188 188 191 194 192 194 196 198 203 209 213 217 221 226 229 234 239 239
191 191 192 193 195 197 199 200 199 197 197 197 197 197 198 198 198 198 200 202 205 208 206 206 206 205 205 202 202 199 195 192 185 182 186 187 188 189 190 191 191 190 190 190 191 192 191 189 190 190 190 190 190 190 191 194 195 195 195 193 192 190 190 190 190 192 191 191 192 192 192 193 196 199 197 198 201 202 208 214 219 222 225 229 232 236 241 240
192 192 193 194 195 197 199 199 198 197 196 197 197 196 196 196 196 197 199 200 204 207 206 204 202 202 200 200 200 197 191 187 182 182 185 186 187 188 189 191 191 191 191 191 192 193 192 191 191 191 191 192 192 191 192 194 196 196 196 194 193 193 193 193 193 194 195 195 196 196 197 197 200 205 203 203 206 207 212 217 223 227 229 232 234 236 241 242
192 192 193 194 195 197 199 199 197 196 196 197 197 196 195 195 195 196 197 200 204 206 203 198 196 196 196 198 197 193 188 183 181 182 185 185 186 188 189 190 191 192 191 192 193 193 193 193 193 193 193 194 194 194 195 196 196 196 195 194 194 195 196 196 197 198 199 199 200 199 201 202 203 208 211 212 212 213 216 220 225 229 232 235 237 239 242 246
192 193 193 194 195 197 198 198 197 196 197 197 197 195 194 194 194 195 197 201 204 204 198 194 194 194 196 197 194 188 184 182 182 183 185 185 186 188 189 190 191 192 193 193 194 194 194 194 194 194 195 195 196 196 198 198 197 197 197 195 197 199 199 200 200 201 202 202 203 202 204 208 207 209 215 219 221 221 222 225 228 231 234 237 239 241 243 247
193 193 194 194 195 196 197 198 197 197 197 197 197 195 194 194 194 195 197 202 205 204 199 198 199 198 198 196 190 186 183 181 183 184 186 186 186 188 190 190 191 193 195 195 195 195 195 195 195 195 195 196 197 198 199 198 198 199 199 198 200 203 203 204 204 204 204 205 206 206 207 213 214 213 216 220 225 229 229 229 231 234 237 240 242 244 245 246
193 193 194 195 195 196 196 197 197 197 198 198 198 197 196 197 196 196 198 202 205 202 198 198 198 195 195 191 186 186 184 182 183 185 187 188 188 189 190 192 192 192 194 196 198 197 197 197 197 196 196 197 198 199 199 198 199 200 200 200 202 205 205 207 207 206 206 207 209 211 212 217 220 220 222 223 225 231 235 235 236 237 239 242 245 246 247 248
193 193 195 195 195 196 196 197 197 198 198 197 197 197 199 201 202 202 203 202 201 196 192 193 193 190 189 187 185 186 185 183 185 186 187 189 190 191 192 194 194 194 194 195 198 199 200 199 198 198 199 199 200 200 201 201 201 202 202 203 205 206 207 209 209 208 210 211 213 216 218 222 227 227 229 229 229 233 236 239 241 241 242 244 246 248 250 252
193 193 194 195 195 195 196 197 197 197 198 197 195 195 197 199 201 204 206 204 199 193 189 189 190 188 187 186 186 187 187 187 187 186 188 189 191 193 194 195 196 197 197 197 197 199 200 200 200 201 202 202 202 202 202 202 203 204 204 206 207 209 210 211 212 211 213 214 216 219 221 226 233 234 234 234 235 238 240 242 244 246 246 247 249 250 252 253
194 193 194 195 194 194 195 196 197 197 197 196 194 194 194 195 198 201 204 205 200 192 187 187 188 187 186 186 188 189 190 191 191 189 189 190 192 194 195 197 198 200 200 200 200 200 200 201 202 204 204 204 204 204 205 204 205 205 206 208 209 211 212 213 214 214 216 217 218 221 223 227 234 238 240 239 238 241 243 244 246 248 249 250 251 252 254 254
194 194 195 195 194 194 195 196 196 196 196 194 193 194 194 194 196 200 201 202 199 192 187 186 186 186 186 187 189 190 191 193 193 193 193 193 194 195 197 198 200 202 203 203 204 204 204 204 206 207 207 207 206 207 207 207 207 207 208 210 211 212 214 215 216 216 218 219 220 223 225 228 234 239 242 243 241 241 244 246 248 249 251 253 253 254 255 256
193 194 195 195 195 194 194 195 196 195 194 194 193 194 194 194 196 200 201 199 196 192 189 188 187 187 187 188 190 191 192 193 193 194 195 196 197 197 199 200 201 202 204 205 206 206 207 207 208 209 210 209 209 209 210 210 211 210 211 212 213 215 216 216 217 219 220 221 222 226 229 231 235 240 243 244 245 243 244 246 248 250 252 255 255 255 256 257
193 194 194 195 195 195 194 194 195 195 194 193 193 194 195 195 197 200 200 198 196 193 191 192 191 189 188 189 191 191 192 193 193 193 195 197 199 200 201 202 202 203 203 205 207 208 208 208 208 209 210 211 212 212 212 213 213 213 213 214 216 217 218 219 220 221 223 224 225 228 233 233 235 241 244 245 246 245 246 248 250 251 253 255 256 256 257 257
193 194 194 194 194 194 195 194 194 195 195 194 193 194 195 195 197 200 199 198 197 195 193 194 194 191 190 192 193 192 193 193 193 193 194 196 198 201 203 204 205 205 205 206 207 208 208 209 210 210 210 212 212 213 215 216 216 216 216 217 218 219 219 220 221 224 226 227 228 230 234 236 236 240 244 245 246 247 249 252 253 253 253 254 255 256 257 257
193 194 194 194 194 193 193 193 194 195 196 195 194 194 195 196 198 200 200 200 198 196 194 195 195 194 192 193 193 193 193 193 194 195 195 195 197 199 202 204 205 207 208 209 208 208 209 210 212 213 213 214 214 215 217 218 219 218 218 219 220 221 222 222 224 226 228 229 231 232 236 239 238 241 245 246 247 249 252 255 256 255 254 253 254 255 256 256
194 194 195 194 194 193 192 192 192 195 195 194 194 194 194 196 198 200 201 202 201 198 197 196 196 196 194 194 194 193 192 194 195 196 196 196 196 198 200 203 205 206 207 209 210 210 211 212 213 214 215 216 216 218 219 219 220 220 220 221 222 223 224 225 226 227 229 231 232 234 238 242 242 242 246 248 249 252 256 257 257 256 254 254 254 254 254 255
195 194 195 195 194 194 193 192 191 193 194 194 194 194 194 196 199 200 200 202 203 200 200 199 198 198 197 195 195 194 194 194 195 196 198 198 198 198 199 201 204 205 205 207 208 209 210 212 213 215 215 216 216 217 218 220 221 220 221 222 223 225 226 227 228 229 231 232 232 235 240 244 245 242 245 250 253 256 258 259 258 258 256 255 254 254 254 254
196 196 196 195 194 194 194 194 194 193 193 194 195 195 196 197 200 203 203 204 204 202 202 202 201 201 200 198 197 196 196 196 195 197 198 199 200 201 201 201 203 204 204 205 206 208 209 210 212 214 215 216 217 218 218 220 221 221 222 223 225 226 227 229 230 231 233 234 234 238 242 244 246 245 246 250 254 257 259 260 260 260 259 258 256 254 253 254
197 197 197 196 195 194 194 195 195 194 193 194 195 197 198 199 202 205 206 206 206 204 203 204 205 204 203 202 200 200 199 199 198 198 199 200 202 203 204 204 204 205 205 206 206 206 208 210 211 213 214 215 216 218 219 220 221 222 223 224 226 228 229 231 232 234 236 236 238 241 243 245 247 249 249 249 251 256 259 261 261 261 261 259 257 255 253 253
198 199 198 197 196 196 195 195 195 194 195 195 196 198 200 202 204 206 207 209 209 208 206 207 207 207 206 205 204 203 203 203 202 201 200 201 202 203 205 206 207 208 209 209 210 209 209 210 211 212 214 215 216 218 219 221 223 224 225 227 229 231 233 234 236 237 239 240 241 243 245 246 247 249 251 250 251 254 256 260 262 262 261 259 257 255 254 252
198 199 199 198 197 197 197 196 195 195 196 197 198 199 201 205 206 206 208 210 212 212 210 208 208 208 208 207 207 206 205 206 205 204 203 203 203 203 204 206 208 209 210 212 214 214 215 215 215 215 216 217 218 220 221 222 224 226 227 229 231 232 234 235 237 239 240 241 242 242 244 245 247 250 252 253 253 254 254 256 259 261 261 260 259 257 255 254
199 200 199 199 199 199 199 198 198 196 197 199 201 202 204 206 207 208 208 209 211 213 211 210 209 209 210 209 208 208 208 208 207 206 206 205 205 205 205 206 208 209 210 212 213 214 216 218 219 220 221 221 222 222 223 224 225 225 225 226 228 230 232 234 236 238 239 240 241 242 244 246 249 251 252 253 254 255 255 256 257 259 259 259 259 258 257 256
201 201 201 200 200 201 201 201 200 199 199 201 202 205 207 208 208 209 209 209 212 214 212 210 209 210 211 211 210 210 210 210 210 208 207 207 207 207 207 207 208 210 212 214 216 215 216 217 218 220 222 222 223 223 224 225 227 228 228 229 231 232 234 236 237 239 240 241 242 242 244 246 249 251 252 253 255 256 257 257 256 255 256 257 257 257 258 257
202 203 203 203 202 202 202 203 203 202 202 203 205 206 208 209 210 210 211 211 213 215 213 212 212 211 212 212 213 213 212 212 211 210 209 208 208 207 207 208 208 209 211 214 217 218 219 219 220 221 221 222 223 223 225 226 227 229 230 231 233 234 235 235 237 238 239 240 241 242 243 245 248 251 254 255 256 256 256 256 255 254 254 254 255 255 256 256
203 204 205 205 204 204 204 205 205 205 205 206 207 208 208 210 209 210 213 214 215 216 215 214 214 214 214 214 215 216 216 215 214 211 210 209 209 208 208 209 209 210 211 212 214 216 218 219 220 222 223 223 223 224 224 226 227 228 229 229 231 232 233 235 237 238 239 242 243 243 244 246 248 252 255 256 255 255 255 255 256 255 254 252 252 254 255 256
205 206 206 206 206 205 205 207 207 207 208 208 208 209 210 210 210 211 213 216 217 218 217 216 215 215 216 217 217 218 219 219 218 215 212 210 210 208 208 208 209 210 211 212 213 214 215 218 219 220 222 223 224 224 225 226 227 228 229 229 230 233 234 235 238 240 241 244 245 245 245 246 248 250 252 253 254 255 255 256 256 255 255 254 253 253 254 255
206 207 208 208 208 207 207 208 209 210 210 210 211 212 212 212 212 212 214 216 218 220 219 217 217 217 218 218 219 221 222 222 220 219 216 213 211 208 207 207 208 209 211 212 214 215 215 217 219 220 221 223 224 225 226 227 228 230 230 231 233 235 237 238 240 241 242 244 245 245 245 245 246 247 249 252 254 255 256 256 256 255 256 256 254 253 252 252
207 208 209 210 211 210 209 209 210 211 212 212 212 213 213 213 213 213 214 216 219 221 220 218 218 219 220 220 220 221 222 222 222 221 219 216 213 209 207 207 207 208 211 212 214 215 217 218 220 221 221 223 225 226 227 227 228 229 230 231 232 234 236 237 238 239 241 243 244 245 245 244 244 246 248 251 253 255 256 256 256 256 256 255 255 254 253 252
207 208 210 212 213 213 212 211 211 211 212 213 213 214 214 215 214 214 214 216 218 220 221 220 220 220 221 222 223 223 223 223 223 223 221 218 216 212 209 207 207 208 211 213 214 216 219 221 223 223 223 223 224 225 226 227 227 228 228 229 230 232 233 235 237 238 239 241 243 245 246 244 244 247 248 249 251 253 255 256 256 255 255 254 254 255 255 254
207 208 210 212 214 214 213 213 212 212 212 213 214 215 216 216 216 216 215 216 218 220 221 221 221 222 222 222 223 224 225 225 226 227 225 221 217 214 211 209 209 211 213 215 215 216 219 222 224 225 226 225 225 225 225 225 226 226 227 228 230 232 233 235 237 238 239 241 243 245 247 246 246 248 249 250 250 251 252 254 254 254 253 253 254 254 255 256
209 209 211 212 214 215 215 215 214 213 213 214 215 217 217 217 218 218 217 217 218 219 221 221 222 224 224 224 224 224 225 226 226 227 227 223 218 216 214 212 211 214 215 216 217 218 222 224 224 225 226 226 225 224 224 224 225 226 227 228 230 231 232 234 236 238 239 241 243 246 247 247 247 248 249 250 250 250 251 252 253 254 254 255 255 256 256 257
210 211 212 213 214 214 215 217 217 216 215 216 217 218 218 218 219 220 220 220 220 220 221 221 222 223 225 225 225 225 226 227 227 226 227 225 221 219 218 216 214 215 216 218 219 221 225 227 226 227 228 226 225 225 225 226 228 229 229 229 230 232 234 237 239 240 240 240 242 244 246 246 245 246 248 249 250 251 252 253 254 255 257 257 257 258 258 258
210 211 212 214 214 215 215 216 217 217 217 218 219 219 220 219 220 221 222 222 222 222 222 222 222 222 223 224 225 226 227 228 229 228 228 228 224 222 221 220 219 218 218 219 220 222 226 227 226 228 229 228 228 229 228 230 231 232 231 232 234 235 237 240 242 241 241 241 242 242 243 243 242 244 247 250 252 253 255 255 256 256 258 258 258 259 260 261
209 210 211 213 214 214 214 214 215 217 217 218 220 221 222 222 222 222 223 224 224 224 224 223 223 223 224 225 226 227 228 228 230 230 229 230 228 225 224 224 223 222 221 222 222 224 227 227 225 226 228 228 229 229 228 229 230 230 230 231 233 235 237 239 241 240 240 242 241 240 241 242 242 243 246 249 253 254 255 256 257 258 259 260 261 263 265 267
209 207 208 212 214 214 214 214 216 217 216 217 218 220 222 224 225 225 226 226 226 226 227 226 225 225 225 226 227 228 228 228 229 230 230 231 230 229 228 227 226 225 225 225 226 226 228 228 227 227 228 229 230 231 230 230 231 231 231 232 233 235 237 239 240 240 242 244 244 243 243 243 243 244 246 249 253 255 257 259 260 262 264 266 267 269 270 271
208 206 206 210 214 217 218 219 220 220 220 221 220 220 221 223 225 227 228 228 228 228 229 229 228 228 228 227 228 228 228 229 230 231 232 232 233 232 231 230 229 229 228 229 229 229 230 230 229 230 231 231 233 234 233 234 234 234 234 235 237 239 241 242 242 243 244 246 245 245 244 243 245 248 251 253 256 258 260 263 264 266 268 270 271 272 272 273
207 207 208 210 214 216 219 221 222 222 223 223 223 222 223 224 225 227 228 229 229 229 230 231 231 230 230 230 230 230 230 230 230 231 232 233 234 235 235 235 235 234 233 233 233 233 233 232 232 233 234 234 234 235 236 236 237 237 237 238 239 240 242 243 242 244 246 247 248 249 249 246 246 251 256 258 260 261 262 265 267 268 269 270 271 273 273 273
207 209 210 211 213 213 216 219 220 222 223 222 222 222 223 224 225 226 227 227 228 229 229 230 231 231 231 231 230 230 231 231 230 230 230 231 232 234 235 236 237 238 239 239 239 238 237 236 236 236 238 237 237 238 239 240 241 242 241 240 240 241 242 244 246 248 250 252 253 255 253 250 250 255 259 261 261 262 263 265 266 268 270 271 271 272 272 272
207 209 211 213 213 213 214 216 219 220 221 220 221 221 222 223 224 224 225 225 225 226 227 228 229 230 230 230 230 229 229 230 230 230 230 230 231 231 233 234 235 236 238 239 241 241 241 241 240 240 241 241 240 241 243 244 245 245 242 241 243 244 245 247 248 250 252 255 257 257 256 254 255 256 258 259 260 261 262 264 266 267 268 269 269 270 271 273
Height
5675 5680 5685 5691 5696 5701 5705 5709 5714 5719 5723 5727 5730 5734 5737 5740 5744 5747 5749 5753 5757 5760 5762 5765 5768 5772 5776 5779 5783 5785 5789 5794 5798 5802 5805 5808 5811 5814 5818 5824 5828 5832 5836 5839 5842 5845 5847 5850 5852 5855 5857 5860 5862 5864 5865 5867 5869 5871 5873 5875 5876 5877 5878 5880 5881 5882 5883 5884 5885 5886 5886 5887 5888 5888 5889 5890 5890 5890 5890 5891 5891 5891 5891 5891 5891 5891 5892 5893
5671 5677 5682 5687 5693 5697 5702 5706 5711 5716 5720 5724 5728 5731 5735 5738 5741 5745 5747 5751 5755 5758 5760 5763 5766 5769 5773 5776 5780 5783 5787 5791 5796 5800 5802 5804 5808 5812 5817 5822 5826 5831 5835 5838 5841 5844 5847 5850 5852 5855 5857 5860 5861 5863 5865 5867 5869 5871 5873 5874 5875 5877 5878 5879 5880 5881 5882 5884 5885 5886 5887 5887 5888 5888 5889 5890 5890 5891 5891 5891 5892 5891 5891 5891 5891 5892 5892 5893
5668 5673 5678 5684 5689 5694 5699 5703 5708 5713 5717 5721 5725 5729 5732 5735 5739 5742 5745 5749 5752 5755 5758 5760 5763 5766 5769 5773 5777 5781 5785 5789 5794 5797 5798 5802 5807 5811 5816 5821 5825 5830 5833 5836 5839 5842 5845 5848 5851 5854 5857 5859 5861 5862 5864 5866 5868 5870 5872 5873 5875 5876 5877 5879 5880 5881 5882 5883 5885 5886 5887 5887 5888 5888 5889 5890 5890 5891 5891 5892 5893 5892 5892 5891 5891 5892 5892 5893
5664 5670 5675 5680 5686 5691 5695 5700 5705 5709 5714 5718 5722 5726 5730 5733 5736 5739 5743 5747 5750 5752 5755 5757 5760 5763 5766 5769 5773 5777 5782 5787 5791 5793 5795 5800 5805 5810 5815 5819 5824 5828 5831 5833 5836 5839 5841 5844 5847 5851 5854 5857 5860 5862 5863 5865 5867 5869 5871 5872 5874 5875 5877 5878 5879 5880 5882 5883 5885 5886 5887 5887 5888 5889 5889 5890 5890 5890 5891 5892 5893 5893 5893 5893 5892 5892 5892 5893
5661 5666 5672 5677 5682 5687 5692 5697 5702 5707 5711 5716 5720 5724 5727 5730 5733 5737 5740 5744 5748 5750 5752 5755 5757 5760 5763 5767 5771 5774 5779 5783 5787 5790 5793 5798 5803 5808 5813 5817 5822 5826 5829 5832 5835 5837 5840 5843 5845 5848 5852 5855 5858 5861 5863 5864 5866 5868 5870 5872 5873 5874 5876 5877 5879 5880 5881 5883 5884 5885 5887 5887 5888 5889 5889 5890 5890 5890 5891 5892 5893 5893 5893 5893 5893 5893 5893 5893
5657 5663 5668 5674 5679 5684 5689 5694 5699 5704 5708 5713 5717 5721 5725 5728 5731 5734 5738 5742 5746 5748 5750 5752 5754 5758 5761 5764 5767 5771 5776 5780 5784 5788 5792 5796 5801 5806 5811 5816 5820 5824 5827 5830 5834 5837 5840 5843 5845 5847 5851 5854 5857 5860 5862 5864 5866 5868 5869 5871 5872 5873 5875 5876 5878 5879 5881 5882 5884 5885 5886 5887 5888 5889 5889 5890 5890 5890 5891 5892 5893 5894 5894 5894 5893 5893 5893 5893
5654 5660 5665 5671 5676 5681 5686 5691 5696 5701 5705 5710 5715 5719 5722 5725 5728 5731 5735 5739 5743 5745 5747 5749 5752 5756 5759 5762 5766 5770 5774 5779 5782 5786 5790 5794 5799 5804 5809 5814 5818 5822 5825 5828 5832 5836 5839 5842 5845 5848 5850 5853 5857 5859 5861 5863 5865 5867 5869 5870 5871 5872 5874 5875 5876 5878 5880 5881 5883 5884 5885 5886 5887 5888 5889 5890 5890 5891 5891 5892 5892 5893 5894 5894 5894 5894 5894 5894
5651 5656 5662 5668 5673 5679 5684 5689 5693 5698 5703 5707 5712 5716 5720 5723 5726 5729 5732 5736 5740 5743 5745 5747 5749 5753 5757 5760 5765 5768 5773 5777 5779 5784 5787 5791 5797 5802 5807 5812 5816 5820 5824 5827 5831 5835 5839 5842 5845 5848 5850 5853 5856 5859 5860 5862 5864 5866 5868 5870 5871 5872 5873 5874 5875 5877 5879 5880 5882 5883 5884 5886 5887 5888 5888 5889 5890 5890 5891 5891 5892 5893 5894 5894 5895 5895 5894 5894
5647 5653 5659 5665 5671 5676 5681 5686 5690 5695 5700 5704 5708 5713 5717 5720 5723 5726 5730 5734 5738 5740 5742 5745 5748 5751 5755 5758 5762 5765 5770 5773 5776 5781 5785 5788 5794 5800 5805 5810 5814 5818 5822 5825 5829 5832 5837 5841 5844 5847 5850 5852 5855 5857 5859 5861 5863 5865 5867 5869 5870 5871 5872 5873 5874 5876 5878 5880 5881 5882 5884 5885 5886 5887 5887 5888 5889 5890 5891 5891 5891 5892 5893 5894 5894 5895 5895 5895
5644 5650 5656 5662 5667 5673 5678 5683 5688 5692 5697 5701 5705 5710 5714 5718 5721 5724 5727 5731 5734 5737 5740 5743 5746 5749 5752 5755 5759 5762 5765 5768 5772 5778 5781 5786 5792 5798 5803 5808 5812 5816 5820 5824 5827 5830 5835 5839 5842 5845 5848 5851 5853 5855 5858 5860 5862 5864 5866 5867 5869 5870 5871 5872 5873 5875 5877 5879 5880 5881 5883 5884 5885 5886 5886 5887 5888 5889 5890 5891 5891 5891 5892 5893 5894 5894 5895 5895
5642 5647 5653 5659 5665 5670 5675 5680 5685 5690 5694 5699 5703 5707 5711 5715 5718 5722 5725 5728 5731 5734 5737 5740 5743 5747 5749 5752 5756 5758 5760 5764 5769 5775 5779 5784 5790 5795 5801 5805 5810 5814 5818 5822 5826 5830 5833 5836 5839 5842 5844 5847 5850 5853 5855 5858 5860 5862 5864 5866 5868 5869 5870 5871 5873 5874 5876 5878 5879 5881 5882 5883 5884 5885 5886 5887 5888 5889 5890 5890 5891 5891 5891 5892 5893 5894 5894 5895
5639 5645 5650 5656 5662 5667 5673 5677 5682 5687 5691 5696 5700 5704 5709 5712 5716 5719 5722 5725 5728 5731 5734 5737 5740 5743 5746 5749 5751 5753 5757 5761 5765 5771 5776 5782 5787 5793 5798 5803 5807 5811 5816 5820 5823 5827 5830 5833 5836 5839 5842 5845 5848 5851 5853 5856 5858 5860 5862 5864 5866 5868 5869 5871 5872 5874 5875 5877 5878 5879 5881 5882 5883 5884 5885 5886 5887 5888 5889 5890 5890 5890 5891 5891 5892 5893 5894 5894
5637 5642 5648 5653 5659 5665 5670 5675 5680 5684 5689 5693 5697 5702 5706 5710 5713 5716 5719 5722 5725 5728 5731 5733 5736 5739 5742 5745 5747 5750 5754 5758 5762 5768 5774 5780 5785 5791 5796 5801 5805 5809 5813 5817 5820 5824 5827 5831 5834 5837 5840 5844 5846 5849 5852 5855 5857 5859 5861 5863 5864 5866 5868 5870 5871 5873 5874 5876 5877 5878 5879 5881 5882 5883 5884 5885 5886 5887 5888 5889 5889 5889 5890 5890 5891 5892 5892 5893
5634 5639 5645 5651 5657 5662 5667 5672 5677 5682 5686 5690 5694 5698 5702 5706 5710 5713 5716 5719 5722 5725 5728 5730 5733 5736 5739 5742 5745 5748 5752 5755 5760 5766 5772 5778 5783 5789 5794 5799 5803 5807 5810 5814 5818 5821 5824 5828 5831 5834 5838 5841 5843 5847 5851 5853 5855 5857 5859 5861 5863 5865 5867 5869 5871 5872 5873 5875 5876 5877 5878 5880 5881 5881 5883 5884 5885 5886 5887 5888 5888 5889 5889 5889 5890 5890 5891 5892
5632 5637 5643 5648 5654 5659 5665 5670 5674 5679 5683 5687 5691 5695 5699 5703 5707 5710 5714 5716 5719 5722 5725 5728 5731 5734 5737 5740 5742 5746 5750 5754 5758 5764 5770 5775 5781 5786 5792 5797 5801 5804 5808 5811 5815 5819 5821 5825 5828 5832 5836 5838 5841 5844 5847 5850 5853 5855 5857 5859 5862 5864 5866 5867 5869 5871 5872 5873 5874 5876 5877 5878 5879 5880 5881 5883 5884 5885 5886 5887 5887 5887 5888 5888 5888 5889 5890 5890
5630 5635 5640 5646 5651 5657 5662 5667 5671 5676 5680 5684 5688 5691 5696 5700 5704 5707 5711 5714 5717 5720 5724 5727 5729 5732 5735 5737 5740 5745 5748 5752 5757 5762 5768 5773 5778 5784 5789 5794 5798 5802 5805 5809 5812 5816 5820 5822 5825 5829 5833 5836 5839 5842 5845 5847 5850 5852 5855 5858 5861 5863 5864 5866 5868 5869 5871 5872 5873 5874 5876 5877 5878 5879 5880 5881 5883 5884 5885 5886 5886 5886 5886 5886 5887 5888 5888 5889
5627 5632 5638 5643 5649 5654 5659 5664 5669 5673 5677 5681 5685 5689 5693 5697 5701 5704 5708 5711 5714 5718 5721 5724 5727 5730 5732 5735 5740 5744 5748 5751 5756 5761 5766 5771 5775 5781 5786 5791 5795 5799 5803 5806 5810 5814 5817 5820 5824 5828 5831 5834 5837 5840 5842 5843 5846 5850 5854 5857 5860 5861 5863 5865 5867 5868 5869 5870 5872 5873 5874 5876 5877 5878 5879 5880 5881 5882 5883 5884 5885 5885 5885 5885 5885 5886 5887 5887
5625 5630 5635 5640 5646 5652 5657 5661 5666 5670 5674 5678 5681 5685 5689 5694 5698 5702 5706 5709 5712 5715 5718 5720 5723 5727 5730 5735 5740 5743 5747 5750 5755 5760 5764 5768 5773 5778 5783 5787 5792 5796 5800 5803 5807 5811 5814 5818 5822 5826 5829 5832 5835 5837 5839 5843 5848 5852 5855 5858 5859 5860 5862 5863 5864 5866 5867 5868 5870 5872 5873 5874 5875 5877 5878 5878 5880 5881 5882 5882 5883 5883 5884 5884 5884 5884 5885 5886
5623 5628 5633 5638 5643 5649 5654 5658 5662 5666 5670 5674 5678 5682 5686 5691 5695 5699 5703 5706 5710 5714 5717 5720 5724 5728 5732 5735 5739 5742 5745 5749 5753 5758 5763 5767 5771 5776 5780 5784 5788 5793 5797 5801 5804 5808 5811 5815 5818 5821 5825 5829 5833 5837 5841 5845 5849 5851 5854 5856 5857 5857 5859 5860 5862 5863 5865 5867 5868 5870 5871 5872 5873 5875 5876 5877 5878 5879 5879 5880 5880 5882 5882 5883 5883 5883 5884 5884
5621 5626 5630 5635 5641 5646 5651 5655 5660 5664 5668 5673 5677 5681 5684 5688 5692 5696 5701 5705 5710 5715 5719 5722 5725 5728 5732 5734 5737 5740 5743 5747 5752 5757 5761 5765 5770 5773 5777 5781 5785 5789 5794 5799 5803 5807 5810 5812 5816 5821 5825 5829 5833 5836 5840 5843 5845 5847 5849 5851 5852 5854 5856 5858 5860 5862 5864 5865 5867 5868 5869 5870 5871 5873 5874 5875 5876 5877 5877 5877 5878 5879 5880 5881 5881 5881 5882 5882
5619 5624 5628 5633 5638 5643 5648 5652 5657 5662 5667 5672 5676 5681 5685 5690 5693 5697 5700 5703 5708 5714 5718 5721 5723 5726 5729 5733 5736 5739 5743 5746 5750 5754 5759 5763 5767 5771 5775 5779 5783 5786 5790 5795 5800 5805 5808 5811 5816 5821 5825 5828 5831 5834 5837 5840 5842 5844 5846 5848 5850 5852 5854 5856 5858 5860 5862 5863 5865 5866 5868 5869 5869 5870 5871 5873 5874 5874 5875 5876 5876 5877 5878 5879 5879 5879 5880 5879
5616 5621 5626 5631 5636 5640 5645 5651 5655 5660 5665 5669 5674 5680 5685 5690 5695 5699 5701 5703 5706 5710 5713 5717 5721 5724 5728 5732 5735 5738 5742 5746 5749 5752 5756 5761 5765 5769 5773 5778 5782 5786 5789 5792 5796 5800 5804 5809 5814 5818 5821 5824 5827 5830 5833 5836 5839 5841 5843 5845 5847 5850 5852 5854 5856 5858 5859 5861 5862 5864 5866 5867 5866 5867 5868 5870 5871 5872 5873 5874 5874 5875 5876 5876 5877 5878 5878 5877
5614 5619 5624 5628 5633 5638 5643 5648 5653 5658 5663 5668 5673 5677 5682 5687 5692 5696 5699 5703 5706 5707 5710 5714 5718 5722 5726 5730 5734 5737 5741 5745 5749 5752 5756 5760 5764 5768 5772 5776 5780 5784 5788 5792 5795 5798 5802 5807 5811 5814 5817 5821 5824 5827 5830 5833 5835 5838 5840 5842 5845 5848 5850 5851 5853 5855 5856 5858 5860 5862 5863 5864 5864 5864 5866 5867 5869 5870 5871 5872 5872 5873 5873 5874 5875 5875 5875 5875
5612 5617 5622 5626 5631 5636 5641 5646 5651 5657 5662 5666 5670 5674 5679 5684 5688 5691 5695 5700 5704 5706 5708 5711 5715 5719 5723 5727 5731 5735 5740 5744 5748 5752 5756 5759 5763 5767 5770 5774 5778 5782 5786 5791 5795 5799 5803 5806 5809 5812 5815 5818 5821 5824 5827 5830 5832 5835 5838 5840 5843 5845 5847 5849 5851 5852 5854 5855 5857 5859 5860 5861 5861 5862 5863 5864 5866 5867 5868 5869 5870 5870 5871 5871 5872 5873 5873 5873
5610 5615 5620 5624 5629 5634 5639 5644 5650 5655 5659 5663 5668 5672 5677 5681 5684 5689 5692 5696 5700 5704 5707 5710 5713 5716 5720 5725 5729 5733 5738 5741 5745 5749 5754 5758 5762 5765 5769 5772 5776 5780 5785 5789 5792 5796 5800 5804 5807 5810 5814 5816 5819 5822 5824 5827 5830 5833 5835 5838 5840 5842 5844 5846 5848 5849 5851 5852 5854 5856 5857 5858 5859 5860 5861 5862 5863 5865 5865 5866 5867 5868 5868 5869 5869 5870 5870 5870
5608 5614 5618 5623 5627 5632 5637 5642 5647 5652 5656 5660 5665 5670 5674 5678 5682 5685 5689 5693 5696 5700 5704 5707 5711 5714 5718 5723 5726 5730 5734 5737 5742 5746 5750 5754 5759 5764 5767 5771 5774 5778 5782 5785 5789 5792 5796 5800 5803 5806 5810 5813 5816 5819 5821 5824 5827 5829 5832 5835 5837 5839 5841 5843 5845 5846 5847 5849 5851 5853 5854 5855 5857 5857 5858 5859 5860 5862 5863 5864 5865 5865 5866 5866 5866 5867 5867 5868
5607 5612 5616 5621 5626 5631 5637 5641 5645 5649 5654 5658 5662 5667 5671 5675 5678 5682 5685 5688 5691 5696 5700 5704 5708 5713 5717 5720 5724 5728 5731 5735 5739 5743 5747 5751 5756 5761 5765 5769 5773 5776 5779 5781 5784 5789 5793 5797 5800 5802 5805 5808 5811 5815 5819 5822 5824 5827 5830 5832 5834 5836 5837 5839 5841 5842 5843 5845 5847 5849 5850 5852 5853 5854 5855 5856 5857 5859 5860 5861 5862 5863 5863 5863 5863 5864 5864 5865
5605 5610 5614 5619 5624 5630 5635 5639 5644 5648 5652 5655 5659 5663 5667 5671 5675 5678 5680 5682 5686 5691 5696 5700 5705 5710 5714 5718 5722 5726 5730 5735 5738 5741 5744 5748 5752 5757 5762 5766 5770 5774 5777 5780 5784 5788 5792 5794 5797 5800 5803 5806 5810 5813 5816 5818 5821 5824 5827 5828 5830 5832 5833 5835 5837 5838 5840 5842 5843 5846 5847 5848 5850 5852 5852 5853 5854 5855 5857 5858 5859 5860 5860 5860 5860 5861 5861 5862
5602 5607 5612 5617 5623 5627 5631 5636 5641 5644 5647 5651 5655 5658 5662 5667 5670 5672 5674 5678 5683 5689 5693 5698 5703 5707 5711 5716 5720 5724 5729 5732 5736 5740 5744 5746 5749 5753 5758 5763 5767 5770 5774 5778 5782 5786 5789 5792 5795 5798 5801 5804 5808 5810 5812 5815 5817 5820 5823 5824 5826 5828 5829 5831 5833 5835 5836 5838 5840 5843 5844 5844 5847 5849 5849 5849 5851 5853 5854 5855 5855 5856 5857 5857 5858 5858 5858 5859
5600 5605 5610 5616 5621 5625 5629 5633 5635 5639 5644 5648 5650 5654 5658 5661 5663 5665 5668 5674 5681 5687 5692 5696 5701 5705 5709 5714 5718 5722 5726 5730 5734 5738 5741 5744 5748 5751 5755 5759 5762 5765 5769 5773 5777 5781 5785 5788 5791 5794 5797 5800 5803 5805 5807 5810 5812 5815 5818 5820 5822 5824 5825 5827 5829 5831 5832 5834 5837 5840 5841 5841 5843 5845 5846 5846 5848 5850 5851 5851 5852 5853 5854 5854 5855 5855 5855 5856
5598 5603 5608 5614 5619 5623 5627 5629 5631 5635 5640 5644 5647 5650 5652 5655 5658 5660 5666 5673 5680 5685 5690 5694 5699 5704 5709 5713 5717 5720 5724 5727 5731 5734 5738 5742 5745 5748 5751 5754 5757 5761 5765 5768 5771 5776 5779 5782 5786 5789 5793 5796 5798 5800 5803 5805 5808 5811 5814 5816 5818 5820 5822 5823 5825 5827 5828 5830 5834 5836 5838 5838 5839 5842 5844 5844 5845 5846 5847 5847 5848 5849 5850 5851 5852 5852 5852 5852
5595 5600 5606 5611 5616 5620 5623 5626 5629 5633 5635 5639 5643 5645 5648 5651 5653 5659 5667 5673 5676 5682 5689 5694 5699 5704 5709 5713 5716 5719 5722 5725 5728 5731 5735 5739 5742 5745 5749 5752 5755 5758 5761 5764 5767 5771 5774 5778 5781 5784 5787 5790 5793 5795 5798 5801 5804 5806 5809 5812 5814 5815 5818 5820 5822 5824 5825 5828 5831 5833 5834 5834 5836 5838 5840 5841 5842 5843 5843 5844 5844 5846 5846 5847 5848 5848 5849 5849
5592 5597 5603 5608 5612 5616 5618 5622 5626 5629 5632 5635 5638 5642 5645 5647 5651 5661 5668 5670 5675 5683 5690 5694 5699 5703 5706 5709 5713 5717 5721 5724 5726 5729 5732 5736 5739 5743 5746 5750 5754 5758 5761 5764 5766 5769 5771 5773 5777 5780 5783 5786 5789 5791 5795 5798 5802 5804 5807 5809 5811 5813 5815 5817 5819 5821 5823 5825 5827 5829 5830 5831 5833 5834 5835 5837 5839 5840 5840 5840 5841 5842 5842 5843 5844 5844 5845 5846
5589 5594 5599 5604 5608 5611 5615 5619 5623 5626 5630 5632 5635 5638 5640 5644 5654 5662 5665 5669 5676 5682 5687 5691 5695 5699 5702 5706 5710 5714 5717 5720 5723 5727 5730 5732 5735 5738 5742 5746 5751 5755 5760 5763 5766 5769 5771 5773 5776 5779 5781 5784 5787 5790 5794 5797 5799 5801 5804 5806 5808 5810 5812 5814 5816 5817 5819 5822 5823 5824 5825 5827 5829 5831 5831 5834 5836 5836 5837 5837 5838 5838 5838 5839 5840 5840 5841 5842
5585 5590 5595 5600 5604 5608 5612 5616 5619 5622 5626 5629 5633 5635 5638 5645 5654 5658 5663 5669 5674 5678 5683 5688 5692 5694 5697 5701 5705 5709 5713 5716 5720 5723 5726 5730 5734 5737 5741 5745 5748 5752 5755 5758 5761 5766 5769 5772 5776 5779 5781 5784 5786 5788 5791 5793 5794 5796 5799 5801 5802 5805 5807 5809 5811 5813 5815 5817 5818 5820 5822 5824 5826 5827 5828 5830 5831 5832 5833 5834 5835 5835 5835 5835 5835 5836 5837 5838
5581 5586 5591 5596 5600 5605 5609 5613 5616 5620 5623 5626 5629 5633 5640 5647 5652 5656 5662 5668 5671 5675 5681 5683 5686 5689 5692 5697 5700 5704 5709 5713 5717 5720 5723 5727 5731 5735 5740 5743 5747 5750 5754 5757 5760 5763 5766 5769 5772 5775 5777 5780 5782 5784 5787 5788 5790 5793 5795 5797 5800 5803 5804 5806 5807 5809 5811 5812 5814 5816 5819 5821 5822 5823 5824 5827 5828 5828 5829 5831 5831 5831 5832 5832 5832 5832 5833 5833
5577 5582 5587 5592 5597 5601 5606 5609 5613 5616 5620 5623 5627 5633 5640 5645 5649 5655 5660 5664 5668 5673 5677 5679 5681 5685 5689 5693 5697 5701 5706 5709 5712 5716 5720 5723 5727 5732 5737 5740 5744 5748 5751 5755 5758 5762 5765 5768 5770 5771 5773 5775 5778 5780 5782 5784 5787 5790 5792 5796 5798 5798 5799 5802 5803 5805 5806 5807 5809 5812 5815 5817 5818 5819 5821 5823 5824 5824 5825 5827 5827 5828 5829 5829 5828 5829 5829 5829
5574 5579 5584 5588 5593 5597 5602 5606 5609 5613 5617 5621 5626 5632 5637 5640 5645 5651 5655 5660 5664 5668 5673 5676 5679 5683 5687 5690 5695 5699 5702 5705 5708 5712 5716 5719 5724 5729 5734 5737 5741 5745 5747 5751 5754 5757 5761 5763 5766 5767 5769 5772 5774 5775 5777 5780 5783 5785 5788 5791 5792 5792 5795 5797 5798 5800 5802 5803 5805 5809 5811 5813 5815 5817 5818 5819 5819 5820 5821 5823 5824 5825 5825 5825 5825 5825 5825 5826
5570 5575 5579 5584 5588 5593 5597 5601 5606 5610 5613 5618 5624 5629 5633 5637 5643 5648 5651 5656 5660 5664 5669 5673 5677 5681 5684 5688 5693 5696 5699 5702 5706 5709 5713 5716 5721 5726 5730 5734 5738 5741 5744 5747 5749 5752 5755 5758 5760 5762 5764 5766 5768 5770 5773 5776 5779 5781 5784 5786 5786 5788 5791 5793 5795 5797 5799 5800 5802 5805 5806 5809 5813 5814 5814 5814 5815 5816 5817 5819 5820 5821 5821 5821 5822 5822 5822 5822
5566 5571 5575 5580 5584 5588 5593 5597 5601 5605 5610 5617 5623 5626 5630 5635 5639 5644 5648 5652 5656 5659 5664 5670 5674 5678 5681 5685 5689 5692 5696 5699 5703 5707 5710 5714 5718 5722 5726 5730 5733 5737 5740 5742 5744 5747 5750 5752 5754 5757 5759 5760 5763 5766 5770 5773 5775 5777 5780 5782 5784 5786 5788 5790 5792 5793 5795 5796 5798 5799 5801 5805 5809 5810 5810 5810 5811 5812 5813 5815 5816 5817 5817 5818 5818 5818 5818 5818
5561 5567 5572 5576 5580 5584 5588 5591 5596 5602 5609 5616 5619 5623 5627 5631 5635 5640 5644 5648 5652 5656 5661 5667 5671 5674 5678 5681 5684 5688 5692 5695 5699 5703 5706 5710 5715 5719 5723 5726 5729 5733 5735 5737 5740 5743 5745 5748 5749 5751 5754 5757 5760 5764 5767 5768 5770 5773 5775 5778 5780 5782 5784 5785 5786 5788 5790 5791 5792 5793 5795 5801 5805 5806 5806 5807 5807 5808 5809 5810 5811 5812 5813 5813 5813 5814 5814 5814
5557 5563 5568 5572 5575 5580 5584 5588 5593 5600 5606 5611 5615 5619 5623 5627 5631 5636 5640 5644 5649 5653 5658 5662 5666 5670 5673 5677 5681 5684 5688 5691 5695 5698 5702 5707 5712 5717 5721 5723 5725 5728 5730 5733 5736 5739 5742 5744 5745 5747 5750 5753 5755 5758 5760 5763 5765 5768 5770 5773 5775 5776 5778 5779 5781 5784 5785 5785 5787 5788 5790 5797 5802 5802 5803 5804 5804 5805 5805 5805 5807 5808 5808 5809 5809 5809 5809 5809
5553 5559 5564 5568 5571 5575 5579 5583 5589 5595 5601 5607 5612 5615 5618 5623 5627 5631 5636 5641 5645 5649 5654 5658 5662 5666 5669 5672 5676 5680 5684 5687 5690 5694 5699 5703 5708 5712 5715 5718 5721 5723 5725 5727 5731 5734 5736 5738 5740 5742 5745 5747 5750 5753 5755 5757 5760 5762 5766 5769 5770 5772 5774 5775 5776 5779 5779 5780 5784 5784 5786 5794 5799 5799 5799 5799 5799 5800 5801 5801 5802 5803 5803 5804 5804 5804 5804 5804
5550 5556 5560 5563 5567 5570 5574 5579 5587 5593 5598 5603 5607 5610 5614 5619 5623 5627 5633 5637 5641 5645 5650 5655 5659 5662 5666 5669 5673 5676 5679 5682 5685 5690 5693 5697 5701 5705 5709 5713 5715 5717 5720 5723 5726 5729 5730 5731 5733 5736 5738 5740 5743 5745 5748 5751 5754 5758 5762 5764 5765 5768 5769 5770 5772 5774 5774 5777 5781 5780 5782 5792 5795 5794 5793 5793 5794 5795 5796 5796 5797 5797 5798 5798 5798 5799 5799 5799
5547 5550 5554 5558 5563 5567 5572 5579 5585 5590 5595 5599 5603 5606 5610 5615 5619 5624 5629 5633 5637 5641 5646 5651 5655 5658 5662 5665 5668 5672 5674 5677 5681 5684 5688 5691 5695 5699 5703 5707 5710 5712 5715 5718 5721 5723 5723 5724 5728 5730 5731 5734 5737 5740 5745 5750 5753 5755 5758 5760 5762 5764 5765 5767 5768 5768 5770 5775 5776 5776 5781 5788 5789 5788 5787 5787 5787 5789 5789 5790 5792 5792 5791 5792 5792 5792 5792 5793
5542 5545 5549 5554 5559 5564 5570 5576 5581 5585 5590 5595 5599 5602 5605 5610 5615 5619 5623 5628 5632 5637 5641 5646 5650 5654 5657 5660 5663 5667 5670 5673 5676 5680 5684 5687 5690 5694 5698 5702 5705 5708 5710 5712 5714 5715 5716 5718 5721 5724 5727 5732 5736 5741 5746 5749 5750 5751 5755 5757 5758 5760 5761 5762 5761 5762 5767 5770 5769 5772 5778 5781 5783 5783 5781 5780 5782 5783 5783 5784 5785 5785 5784 5784 5785 5786 5786 5787
5538 5542 5545 5549 5555 5560 5566 5571 5576 5581 5586 5591 5594 5598 5602 5606 5610 5614 5618 5623 5628 5632 5636 5641 5645 5649 5652 5656 5660 5663 5666 5670 5672 5676 5680 5682 5686 5689 5692 5696 5699 5702 5705 5707 5708 5709 5710 5712 5717 5720 5724 5728 5732 5735 5739 5740 5742 5745 5748 5749 5751 5752 5753 5753 5754 5759 5763 5762 5762 5770 5775 5775 5777 5778 5776 5775 5776 5777 5777 5777 5777 5777 5777 5778 5780 5781 5781 5781
5535 5539 5542 5546 5550 5556 5561 5567 5572 5577 5581 5585 5589 5592 5597 5601 5606 5610 5614 5619 5624 5627 5631 5635 5640 5645 5649 5653 5655 5658 5661 5664 5667 5671 5674 5677 5681 5684 5687 5690 5692 5696 5699 5701 5702 5704 5705 5708 5714 5717 5720 5724 5726 5728 5731 5734 5736 5738 5740 5742 5744 5746 5746 5747 5751 5756 5758 5756 5761 5769 5770 5770 5773 5773 5771 5771 5771 5771 5771 5771 5771 5771 5771 5773 5775 5775 5775 5774
5532 5536 5540 5543 5547 5553 5558 5563 5567 5571 5575 5579 5583 5587 5591 5596 5601 5605 5610 5614 5618 5622 5626 5631 5636 5641 5644 5647 5650 5652 5655 5659 5664 5668 5671 5674 5676 5679 5682 5684 5686 5690 5693 5695 5697 5699 5701 5705 5710 5713 5716 5719 5720 5722 5726 5728 5729 5732 5734 5737 5739 5740 5741 5744 5748 5752 5752 5752 5758 5762 5762 5765 5769 5768 5768 5768 5766 5767 5767 5765 5765 5765 5766 5767 5767 5767 5767 5767
5528 5533 5537 5540 5544 5549 5553 5557 5561 5566 5569 5573 5577 5582 5587 5591 5596 5600 5604 5608 5613 5617 5622 5627 5631 5635 5639 5641 5644 5648 5651 5656 5660 5664 5667 5669 5672 5675 5677 5679 5682 5685 5687 5690 5692 5693 5697 5701 5705 5708 5710 5711 5714 5717 5720 5721 5723 5726 5728 5730 5732 5734 5737 5740 5744 5747 5747 5748 5753 5755 5755 5761 5765 5765 5764 5763 5762 5762 5761 5760 5759 5758 5758 5759 5759 5759 5760 5759
5523 5528 5533 5537 5541 5546 5549 5552 5557 5561 5564 5568 5573 5577 5581 5586 5591 5595 5599 5603 5607 5612 5617 5621 5625 5628 5632 5635 5639 5643 5647 5651 5655 5658 5661 5663 5667 5670 5672 5674 5678 5680 5681 5684 5686 5688 5693 5696 5700 5703 5703 5705 5710 5713 5713 5715 5717 5716 5718 5723 5727 5731 5734 5738 5741 5742 5742 5745 5748 5747 5749 5757 5761 5760 5758 5757 5755 5755 5754 5753 5752 5751 5751 5752 5752 5752 5751 5751
5519 5523 5528 5533 5538 5542 5546 5549 5552 5556 5560 5565 5569 5573 5577 5582 5586 5590 5593 5597 5602 5606 5610 5614 5617 5621 5624 5628 5632 5637 5642 5645 5648 5651 5654 5657 5660 5663 5664 5667 5671 5673 5675 5678 5680 5683 5687 5691 5695 5697 5696 5700 5705 5706 5707 5709 5705 5703 5712 5723 5727 5730 5732 5733 5733 5735 5738 5740 5739 5740 5746 5753 5753 5751 5750 5749 5748 5748 5748 5747 5746 5745 5745 5745 5744 5744 5744 5744